This is the latest recevied weather packets stored in our database for station/object KF4PPJ. If no packets are shown the sender has not sent any weather packets the latest 1 day(s).
| Time | Temp. | Humidity | Pressure | Rain* | Wind** | Luminosity | Snow |
|---|---|---|---|---|---|---|---|
| 1836274559 | 14.44° C | 82% | 1016 hPa | 0 mm | 0.45 m/s, 156° | 0 W/m² | - |
| 1836274413 | 13.89° C | 82% | 1016 hPa | 0 mm | 0 m/s | 0 W/m² | - |
| 1836274258 | 14.44° C | 81% | 1015.7 hPa | 0 mm | 0 m/s | 0 W/m² | - |
| 1836274111 | 14.44° C | 82% | 1015.7 hPa | 0 mm | 0 m/s | 0 W/m² | - |
| 1836273957 | 14.44° C | 81% | 1015.8 hPa | 0 mm | 0 m/s | 0 W/m² | - |
| 1778063730 | 11.67° C | 88% | 1021.2 hPa | 0 mm | 0.89 m/s, 167° | 0 W/m² | - |
| 1778063427 | 11.67° C | 88% | 1021.1 hPa | 0 mm | 1.34 m/s, 236° | 0 W/m² | - |
| 1778063126 | 11.67° C | 88% | 1021.1 hPa | 0 mm | 1.34 m/s, 220° | 0 W/m² | - |
| 1778062823 | 11.67° C | 88% | 1020.9 hPa | 0 mm | 1.34 m/s, 173° | 0 W/m² | - |
| 1778062519 | 11.67° C | 88% | 1020.9 hPa | 0 mm | 1.34 m/s, 162° | 0 W/m² | - |
| 1778062216 | 11.67° C | 88% | 1020.8 hPa | 0 mm | 0.89 m/s, 187° | 0 W/m² | - |
| 1778061914 | 11.67° C | 88% | 1020.7 hPa | 0 mm | 1.34 m/s, 175° | 0 W/m² | - |
| 1778061613 | 11.67° C | 88% | 1020.9 hPa | 0 mm | 0.89 m/s, 166° | 0 W/m² | - |
| 1778061311 | 11.67° C | 88% | 1020.7 hPa | 0 mm | 1.79 m/s, 167° | 0 W/m² | - |
| 1778061006 | 11.67° C | 88% | 1020.6 hPa | 0 mm | 0.89 m/s, 209° | 0 W/m² | - |
| 1778060705 | 11.67° C | 87% | 1020.7 hPa | 0 mm | 0.89 m/s, 189° | 0 W/m² | - |
| 1778060402 | 11.67° C | 87% | 1020.7 hPa | 0 mm | 2.24 m/s, 205° | 0 W/m² | - |
| 1778060100 | 11.67° C | 87% | 1020.7 hPa | 0 mm | 2.24 m/s, 195° | 0 W/m² | - |
| 1778059798 | 11.67° C | 87% | 1020.6 hPa | 0 mm | 1.79 m/s, 156° | 0 W/m² | - |
| 1778059495 | 12.22° C | 87% | 1020.5 hPa | 0 mm | 1.34 m/s, 214° | 0 W/m² | - |
| 1778059191 | 12.22° C | 88% | 1020.5 hPa | 0 mm | 1.34 m/s, 193° | 0 W/m² | - |
| 1778058890 | 12.22° C | 88% | 1020.5 hPa | 0 mm | 1.79 m/s, 230° | 0 W/m² | - |
| 1778058587 | 12.22° C | 88% | 1020.5 hPa | 0 mm | 0.89 m/s, 194° | 0 W/m² | - |
| 1778058285 | 12.22° C | 88% | 1020.5 hPa | 0 mm | 1.34 m/s, 206° | 0 W/m² | - |
| 1778057981 | 12.22° C | 87% | 1020.4 hPa | 0 mm | 1.34 m/s, 202° | 0 W/m² | - |
* Rain latest hour (hover to see other rain measurements)
** Current wind speed in m/s (hover to see current wind gust speed)